| time (UTC) | temp F | wind direction | speed MPH | gust MPH | rain 1hr in | rain 24hr in | rain mn in | humidity % | barometer mb |
| 20260503174956 | 61 | 305 | 12.0 | 26.0 | 0.00 | 0.00 | 0.00 | 42 | 1009.3 |
| 20260503174455 | 62 | 233 | 8.0 | 17.0 | 0.00 | 0.00 | 0.00 | 43 | 1009.4 |
| 20260503173950 | 62 | 223 | 9.0 | 14.0 | 0.00 | 0.00 | 0.00 | 41 | 1009.3 |
| 20260503173446 | 61 | 232 | 6.0 | 14.0 | 0.00 | 0.00 | 0.00 | 45 | 1009.5 |
| 20260503172943 | 61 | 243 | 6.0 | 13.0 | 0.00 | 0.00 | 0.00 | 43 | 1009.4 |
| 20260503172440 | 62 | 228 | 8.0 | 9.0 | 0.00 | 0.00 | 0.00 | 44 | 1009.4 |
| 20260503171937 | 60 | 255 | 8.0 | 15.0 | 0.00 | 0.00 | 0.00 | 44 | 1009.6 |
| 20260503171433 | 61 | 234 | 15.0 | 24.0 | 0.00 | 0.00 | 0.00 | 43 | 1009.5 |
| 20260503170931 | 62 | 300 | 8.0 | 15.0 | 0.00 | 0.00 | 0.00 | 46 | 1009.6 |
| 20260503170427 | 60 | 239 | 9.0 | 14.0 | 0.00 | 0.00 | 0.00 | 44 | 1009.9 |
| 20260503150819 | 52 | 255 | 7.0 | 13.0 | 0.00 | 0.00 | 0.00 | 53 | 1011.0 |
| 20260503150315 | 51 | 242 | 6.0 | 16.0 | 0.00 | 0.00 | 0.00 | 54 | 1011.3 |
| 20260503140240 | 54 | 235 | 11.0 | 17.0 | 0.00 | 0.00 | 0.00 | 50 | 1011.2 |
| 20260503131209 | 51 | 237 | 8.0 | 10.0 | 0.00 | 0.00 | 0.00 | 58 | 1011.2 |
| 20260503130707 | 50 | 215 | 5.0 | 10.0 | 0.00 | 0.00 | 0.00 | 56 | 1011.4 |
| 20260503130204 | 50 | 267 | 8.0 | 11.0 | 0.00 | 0.00 | 0.00 | 57 | 1011.3 |
| 20260503120130 | 43 | 240 | 3.0 | 4.0 | 0.00 | 0.00 | 0.00 | 70 | 1011.3 |
| 20260503110557 | 37 | 174 | 1.0 | 2.0 | 0.00 | 0.00 | 0.00 | 78 | 1011.3 |
| 20260503090444 | 35 | 169 | 2.0 | 3.0 | 0.00 | 0.00 | 0.00 | 77 | 1011.8 |
| 20260503081410 | 33 | 167 | 1.0 | 1.0 | 0.00 | 0.00 | 0.00 | 80 | 1012.5 |
| 20260503080907 | 33 | 171 | 1.0 | 1.0 | 0.00 | 0.00 | 0.00 | 80 | 1012.2 |
| 20260503080404 | 32 | 164 | 1.0 | 2.0 | 0.00 | 0.00 | 0.00 | 83 | 1012.3 |
| 20260503072840 | 32 | 156 | 0.0 | 1.0 | 0.00 | 0.00 | 0.00 | 86 | 1012.3 |
| 20260503072337 | 32 | 156 | 0.0 | 1.0 | 0.00 | 0.00 | 0.00 | 86 | 1012.3 |
| 20260503071833 | 32 | 156 | 0.0 | 1.0 | 0.00 | 0.00 | 0.00 | 86 | 1012.3 |
| 20260503071331 | 32 | 156 | 0.0 | 0.0 | 0.00 | 0.00 | 0.00 | 85 | 1012.3 |
| 20260503070827 | 32 | 156 | 1.0 | 1.0 | 0.00 | 0.00 | 0.00 | 85 | 1012.4 |
| 20260503070326 | 32 | 156 | 1.0 | 1.0 | 0.00 | 0.00 | 0.00 | 85 | 1012.4 |
| 20260503060250 | 31 | 156 | 0.0 | 0.0 | 0.00 | 0.00 | 0.00 | 90 | 1012.7 |
| 20260503054737 | 31 | 156 | 0.0 | 0.0 | 0.00 | 0.00 | 0.00 | 90 | 1013.0 |
| 20260503054234 | 31 | 156 | 0.0 | 0.0 | 0.00 | 0.00 | 0.00 | 90 | 1013.0 |
| 20260503053732 | 31 | 156 | 0.0 | 0.0 | 0.00 | 0.00 | 0.00 | 90 | 1013.0 |
| 20260503053231 | 31 | 156 | 0.0 | 1.0 | 0.00 | 0.00 | 0.00 | 90 | 1013.0 |
| 20260503052726 | 31 | 156 | 0.0 | 1.0 | 0.00 | 0.00 | 0.00 | 91 | 1013.2 |
| 20260503052223 | 31 | 156 | 1.0 | 1.0 | 0.00 | 0.00 | 0.00 | 91 | 1013.3 |
| 20260503051718 | 31 | 156 | 0.0 | 1.0 | 0.00 | 0.00 | 0.00 | 90 | 1013.1 |
| 20260503051216 | 31 | 156 | 0.0 | 1.0 | 0.00 | 0.00 | 0.00 | 91 | 1013.2 |
| 20260503050713 | 31 | 156 | 0.0 | 1.0 | 0.00 | 0.00 | 0.00 | 91 | 1013.2 |
| 20260503050209 | 32 | 156 | 0.0 | 1.0 | 0.00 | 0.00 | 0.00 | 91 | 1013.1 |
| 20260503045707 | 32 | 156 | 0.0 | 1.0 | 0.00 | 0.00 | 0.00 | 91 | 1013.3 |
| 20260503045204 | 32 | 156 | 0.0 | 0.0 | 0.00 | 0.00 | 0.00 | 91 | 1013.3 |
| 20260503044700 | 32 | 156 | 0.0 | 1.0 | 0.00 | 0.00 | 0.00 | 90 | 1013.3 |
| 20260503044158 | 32 | 156 | 0.0 | 0.0 | 0.00 | 0.00 | 0.00 | 89 | 1013.4 |
| 20260503043654 | 32 | 156 | 0.0 | 0.0 | 0.00 | 0.00 | 0.00 | 89 | 1013.4 |
| 20260503043152 | 32 | 156 | 0.0 | 1.0 | 0.00 | 0.00 | 0.00 | 90 | 1013.4 |
| 20260503042648 | 32 | 156 | 0.0 | 1.0 | 0.00 | 0.00 | 0.00 | 90 | 1013.4 |
| 20260503042144 | 32 | 156 | 0.0 | 0.0 | 0.00 | 0.00 | 0.00 | 90 | 1013.2 |
| 20260503041641 | 32 | 156 | 0.0 | 0.0 | 0.00 | 0.00 | 0.00 | 90 | 1013.4 |
| 20260503041139 | 32 | 156 | 0.0 | 1.0 | 0.00 | 0.00 | 0.00 | 89 | 1013.4 |
| 20260503040636 | 32 | 156 | 0.0 | 1.0 | 0.00 | 0.00 | 0.00 | 88 | 1013.3 |
| 20260503040133 | 32 | 156 | 0.0 | 0.0 | 0.00 | 0.00 | 0.00 | 89 | 1013.5 |
| 20260503035629 | 32 | 156 | 0.0 | 1.0 | 0.00 | 0.00 | 0.00 | 90 | 1013.3 |
| 20260503035127 | 32 | 156 | 0.0 | 1.0 | 0.00 | 0.00 | 0.00 | 91 | 1013.5 |
| 20260503034625 | 31 | 157 | 0.0 | 0.0 | 0.00 | 0.00 | 0.00 | 91 | 1013.4 |
| 20260503034122 | 32 | 157 | 0.0 | 0.0 | 0.00 | 0.00 | 0.00 | 91 | 1013.5 |
| 20260503033619 | 32 | 156 | 0.0 | 0.0 | 0.00 | 0.00 | 0.00 | 91 | 1013.5 |
| 20260503033116 | 33 | 156 | 0.0 | 0.0 | 0.00 | 0.00 | 0.00 | 91 | 1013.6 |
| 20260503032615 | 33 | 156 | 0.0 | 1.0 | 0.00 | 0.00 | 0.00 | 92 | 1013.7 |
| 20260503032113 | 33 | 156 | 0.0 | 1.0 | 0.00 | 0.00 | 0.00 | 91 | 1013.6 |
| 20260503031610 | 32 | 156 | 0.0 | 0.0 | 0.00 | 0.00 | 0.00 | 89 | 1013.8 |
| 20260503031108 | 32 | 157 | 0.0 | 0.0 | 0.00 | 0.00 | 0.00 | 87 | 1013.6 |
| 20260503030603 | 33 | 157 | 0.0 | 0.0 | 0.00 | 0.00 | 0.00 | 85 | 1013.7 |
| 20260503030100 | 33 | 156 | 0.0 | 0.0 | 0.00 | 0.00 | 0.00 | 85 | 1013.6 |
| 20260503025557 | 33 | 157 | 0.0 | 0.0 | 0.00 | 0.00 | 0.00 | 83 | 1013.7 |
| 20260503025055 | 32 | 157 | 0.0 | 0.0 | 0.00 | 0.00 | 0.00 | 83 | 1013.7 |
| 20260503024550 | 31 | 156 | 0.0 | 0.0 | 0.00 | 0.00 | 0.00 | 84 | 1013.8 |
| 20260503024048 | 31 | 157 | 0.0 | 0.0 | 0.00 | 0.00 | 0.00 | 82 | 1013.7 |
| 20260503023544 | 32 | 157 | 0.0 | 0.0 | 0.00 | 0.00 | 0.00 | 82 | 1013.6 |
| 20260503023042 | 32 | 157 | 0.0 | 0.0 | 0.00 | 0.00 | 0.00 | 82 | 1013.7 |
| 20260503022538 | 33 | 157 | 0.0 | 0.0 | 0.00 | 0.00 | 0.00 | 80 | 1013.8 |
| 20260503022033 | 33 | 157 | 0.0 | 0.0 | 0.00 | 0.00 | 0.00 | 81 | 1013.5 |
| 20260503021530 | 33 | 157 | 0.0 | 0.0 | 0.00 | 0.00 | 0.00 | 80 | 1013.8 |
| 20260503021027 | 33 | 157 | 0.0 | 0.0 | 0.00 | 0.00 | 0.00 | 80 | 1013.7 |
| 20260503020524 | 33 | 157 | 0.0 | 0.0 | 0.00 | 0.00 | 0.00 | 79 | 1013.6 |
| 20260503020021 | 33 | 157 | 0.0 | 0.0 | 0.00 | 0.00 | 0.00 | 78 | 1013.8 |
| 20260503015517 | 34 | 157 | 0.0 | 0.0 | 0.00 | 0.00 | 0.00 | 77 | 1013.5 |
| 20260503015015 | 34 | 157 | 0.0 | 0.0 | 0.00 | 0.00 | 0.00 | 77 | 1013.8 |
| 20260503014511 | 34 | 157 | 0.0 | 0.0 | 0.00 | 0.00 | 0.00 | 77 | 1013.7 |
| 20260503014009 | 35 | 157 | 0.0 | 0.0 | 0.00 | 0.00 | 0.00 | 77 | 1013.6 |
| 20260503013506 | 35 | 157 | 0.0 | 0.0 | 0.00 | 0.00 | 0.00 | 74 | 1013.5 |
| 20260503013003 | 35 | 157 | 0.0 | 0.0 | 0.00 | 0.00 | 0.00 | 72 | 1013.4 |
| 20260503012501 | 35 | 157 | 0.0 | 0.0 | 0.00 | 0.00 | 0.00 | 70 | 1013.4 |
| 20260503011956 | 36 | 157 | 0.0 | 0.0 | 0.00 | 0.00 | 0.00 | 69 | 1013.4 |
| 20260503011454 | 37 | 157 | 0.0 | 0.0 | 0.00 | 0.00 | 0.00 | 68 | 1013.4 |
| 20260503010951 | 38 | 157 | 0.0 | 0.0 | 0.00 | 0.00 | 0.00 | 66 | 1013.5 |
| 20260503010447 | 39 | 157 | 0.0 | 0.0 | 0.00 | 0.00 | 0.00 | 65 | 1013.3 |
| 20260503005944 | 40 | 165 | 0.0 | 1.0 | 0.00 | 0.00 | 0.00 | 64 | 1013.1 |
| 20260503005442 | 41 | 168 | 0.0 | 0.0 | 0.00 | 0.00 | 0.00 | 62 | 1013.4 |
| 20260503004938 | 42 | 188 | 1.0 | 2.0 | 0.00 | 0.00 | 0.00 | 61 | 1013.1 |
| 20260503004435 | 43 | 232 | 2.0 | 3.0 | 0.00 | 0.00 | 0.00 | 59 | 1013.3 |
| 20260503003933 | 43 | 237 | 2.0 | 3.0 | 0.00 | 0.00 | 0.00 | 57 | 1013.3 |
| 20260503003429 | 44 | 236 | 3.0 | 3.0 | 0.00 | 0.00 | 0.00 | 57 | 1013.2 |
| 20260503002927 | 45 | 236 | 2.0 | 4.0 | 0.00 | 0.00 | 0.00 | 54 | 1013.3 |
| 20260503002424 | 45 | 196 | 1.0 | 4.0 | 0.00 | 0.00 | 0.00 | 52 | 1013.3 |
| 20260503001920 | 46 | 243 | 2.0 | 3.0 | 0.00 | 0.00 | 0.00 | 55 | 1013.4 |
| 20260503001416 | 46 | 204 | 1.0 | 3.0 | 0.00 | 0.00 | 0.00 | 53 | 1013.1 |
| 20260503000914 | 47 | 293 | 2.0 | 4.0 | 0.00 | 0.00 | 0.00 | 49 | 1013.2 |
| 20260503000411 | 47 | 224 | 2.0 | 8.0 | 0.00 | 0.00 | 0.00 | 48 | 1013.2 |
| 20260502235908 | 47 | 211 | 2.0 | 6.0 | 0.00 | 0.00 | 0.00 | 51 | 1013.3 |
| 20260502235405 | 47 | 185 | 1.0 | 3.0 | 0.00 | 0.00 | 0.00 | 52 | 1013.1 |
| 20260502234902 | 47 | 249 | 4.0 | 6.0 | 0.00 | 0.00 | 0.00 | 50 | 1013.2 |
| 20260502234359 | 47 | 304 | 1.0 | 3.0 | 0.00 | 0.00 | 0.00 | 51 | 1013.2 |
| 20260502233856 | 47 | 178 | 1.0 | 3.0 | 0.00 | 0.00 | 0.00 | 51 | 1013.2 |
| 20260502233352 | 47 | 197 | 2.0 | 3.0 | 0.00 | 0.00 | 0.00 | 52 | 1013.3 |
| 20260502232849 | 47 | 205 | 2.0 | 4.0 | 0.00 | 0.00 | 0.00 | 51 | 1013.3 |
| 20260502232345 | 47 | 242 | 2.0 | 3.0 | 0.00 | 0.00 | 0.00 | 49 | 1013.3 |
| 20260502231842 | 47 | 210 | 1.0 | 4.0 | 0.00 | 0.00 | 0.00 | 50 | 1013.4 |
| 20260502231340 | 47 | 254 | 4.0 | 6.0 | 0.00 | 0.00 | 0.00 | 50 | 1013.4 |
| 20260502230838 | 47 | 243 | 5.0 | 6.0 | 0.00 | 0.00 | 0.00 | 51 | 1013.5 |
| 20260502230336 | 48 | 209 | 2.0 | 6.0 | 0.00 | 0.00 | 0.00 | 49 | 1013.4 |
| 20260502225832 | 47 | 263 | 2.0 | 4.0 | 0.00 | 0.00 | 0.00 | 51 | 1013.5 |
| 20260502225328 | 47 | 253 | 3.0 | 4.0 | 0.00 | 0.00 | 0.00 | 50 | 1013.7 |
| 20260502224826 | 47 | 265 | 2.0 | 3.0 | 0.00 | 0.00 | 0.00 | 50 | 1013.7 |
| 20260502224321 | 47 | 231 | 2.0 | 3.0 | 0.00 | 0.00 | 0.00 | 52 | 1013.6 |
| 20260502223819 | 47 | 230 | 2.0 | 3.0 | 0.00 | 0.00 | 0.00 | 54 | 1013.5 |
| 20260502223317 | 46 | 282 | 3.0 | 4.0 | 0.00 | 0.00 | 0.00 | 52 | 1013.5 |
| 20260502222815 | 46 | 285 | 2.0 | 4.0 | 0.00 | 0.00 | 0.00 | 51 | 1013.7 |
| 20260502222312 | 46 | 275 | 3.0 | 3.0 | 0.00 | 0.00 | 0.00 | 52 | 1013.6 |
| 20260502221808 | 47 | 16 | 1.0 | 3.0 | 0.00 | 0.00 | 0.00 | 51 | 1013.5 |
| 20260502221304 | 47 | 175 | 1.0 | 2.0 | 0.00 | 0.00 | 0.00 | 53 | 1013.6 |
| 20260502220801 | 47 | 197 | 2.0 | 4.0 | 0.00 | 0.00 | 0.00 | 50 | 1013.6 |
| 20260502220257 | 47 | 255 | 5.0 | 8.0 | 0.00 | 0.00 | 0.00 | 51 | 1013.4 |
| 20260502215754 | 47 | 247 | 5.0 | 9.0 | 0.00 | 0.00 | 0.00 | 50 | 1013.4 |
| 20260502215251 | 47 | 297 | 3.0 | 8.0 | 0.00 | 0.00 | 0.00 | 49 | 1013.3 |
| 20260502214748 | 47 | 272 | 4.0 | 10.0 | 0.00 | 0.00 | 0.00 | 50 | 1013.5 |
| 20260502214245 | 47 | 261 | 4.0 | 9.0 | 0.00 | 0.00 | 0.00 | 49 | 1013.4 |
| 20260502213742 | 49 | 304 | 6.0 | 8.0 | 0.00 | 0.00 | 0.00 | 49 | 1013.6 |
| 20260502213239 | 50 | 233 | 3.0 | 7.0 | 0.00 | 0.00 | 0.00 | 45 | 1013.6 |
| 20260502212738 | 51 | 277 | 6.0 | 11.0 | 0.00 | 0.00 | 0.00 | 43 | 1013.5 |
| 20260502212236 | 50 | 295 | 5.0 | 8.0 | 0.00 | 0.00 | 0.00 | 46 | 1013.4 |
| 20260502211731 | 49 | 244 | 5.0 | 8.0 | 0.00 | 0.00 | 0.00 | 48 | 1013.4 |
| 20260502211229 | 50 | 155 | 1.0 | 4.0 | 0.00 | 0.00 | 0.00 | 48 | 1013.4 |
| 20260502210726 | 51 | 325 | 8.0 | 11.0 | 0.00 | 0.00 | 0.00 | 44 | 1013.6 |
| 20260502210223 | 50 | 265 | 2.0 | 10.0 | 0.00 | 0.00 | 0.00 | 50 | 1013.4 |
| 20260502205720 | 47 | 290 | 7.0 | 9.0 | 0.00 | 0.00 | 0.00 | 48 | 1013.7 |
| 20260502205216 | 47 | 275 | 6.0 | 7.0 | 0.00 | 0.00 | 0.00 | 50 | 1013.6 |
| 20260502204713 | 46 | 252 | 4.0 | 9.0 | 0.00 | 0.00 | 0.00 | 48 | 1013.8 |
| 20260502204211 | 47 | 245 | 5.0 | 9.0 | 0.00 | 0.00 | 0.00 | 49 | 1013.6 |
| 20260502203708 | 47 | 238 | 4.0 | 10.0 | 0.00 | 0.00 | 0.00 | 50 | 1013.7 |
| 20260502203206 | 48 | 224 | 5.0 | 9.0 | 0.00 | 0.00 | 0.00 | 48 | 1013.9 |
| 20260502202700 | 50 | 288 | 4.0 | 9.0 | 0.00 | 0.00 | 0.00 | 41 | 1013.9 |
| 20260502202159 | 48 | 219 | 2.0 | 3.0 | 0.00 | 0.00 | 0.00 | 48 | 1014.0 |
| 20260502201656 | 48 | 294 | 6.0 | 8.0 | 0.00 | 0.00 | 0.00 | 47 | 1014.1 |
| 20260502201152 | 48 | 271 | 3.0 | 6.0 | 0.00 | 0.00 | 0.00 | 48 | 1013.9 |
| 20260502200648 | 49 | 247 | 5.0 | 11.0 | 0.00 | 0.00 | 0.00 | 48 | 1014.1 |
| 20260502200144 | 48 | 215 | 2.0 | 4.0 | 0.00 | 0.00 | 0.00 | 50 | 1014.1 |
| 20260502195643 | 48 | 257 | 6.0 | 9.0 | 0.00 | 0.00 | 0.00 | 50 | 1014.0 |
| 20260502195139 | 48 | 248 | 4.0 | 8.0 | 0.00 | 0.00 | 0.00 | 49 | 1014.1 |
| 20260502194636 | 48 | 273 | 4.0 | 9.0 | 0.00 | 0.00 | 0.00 | 46 | 1014.0 |
| 20260502194133 | 49 | 280 | 7.0 | 8.0 | 0.00 | 0.00 | 0.00 | 46 | 1014.2 |
| 20260502193629 | 49 | 295 | 5.0 | 8.0 | 0.00 | 0.00 | 0.00 | 44 | 1014.1 |
| 20260502193126 | 48 | 230 | 2.0 | 7.0 | 0.00 | 0.00 | 0.00 | 48 | 1014.3 |
| 20260502192621 | 48 | 245 | 2.0 | 4.0 | 0.00 | 0.00 | 0.00 | 49 | 1014.4 |
| 20260502192119 | 48 | 251 | 4.0 | 10.0 | 0.00 | 0.00 | 0.00 | 47 | 1014.3 |
| 20260502191616 | 49 | 249 | 6.0 | 8.0 | 0.00 | 0.00 | 0.00 | 44 | 1014.6 |
| 20260502191113 | 50 | 244 | 3.0 | 4.0 | 0.00 | 0.00 | 0.00 | 44 | 1014.4 |
| 20260502190611 | 47 | 304 | 1.0 | 7.0 | 0.00 | 0.00 | 0.00 | 50 | 1014.6 |
| 20260502190108 | 47 | 242 | 6.0 | 7.0 | 0.00 | 0.00 | 0.00 | 48 | 1014.7 |
| 20260502185602 | 48 | 248 | 3.0 | 8.0 | 0.00 | 0.00 | 0.00 | 47 | 1014.7 |
| 20260502185100 | 48 | 299 | 4.0 | 6.0 | 0.00 | 0.00 | 0.00 | 49 | 1014.6 |
| 20260502184556 | 48 | 236 | 5.0 | 10.0 | 0.00 | 0.00 | 0.00 | 45 | 1014.7 |
| 20260502184051 | 50 | 276 | 5.0 | 8.0 | 0.00 | 0.00 | 0.00 | 44 | 1014.8 |
| 20260502183548 | 49 | 302 | 3.0 | 4.0 | 0.00 | 0.00 | 0.00 | 48 | 1014.7 |
| 20260502183044 | 47 | 267 | 6.0 | 8.0 | 0.00 | 0.00 | 0.00 | 48 | 1014.9 |
| 20260502182539 | 47 | 275 | 4.0 | 10.0 | 0.00 | 0.00 | 0.00 | 49 | 1014.8 |
| 20260502182036 | 47 | 359 | 1.0 | 6.0 | 0.00 | 0.00 | 0.00 | 48 | 1014.8 |
| 20260502181534 | 47 | 251 | 3.0 | 8.0 | 0.00 | 0.00 | 0.00 | 49 | 1014.9 |
| 20260502181032 | 47 | 273 | 4.0 | 9.0 | 0.00 | 0.00 | 0.00 | 47 | 1014.9 |
| 20260502180529 | 49 | 323 | 6.0 | 10.0 | 0.00 | 0.00 | 0.00 | 47 | 1015.1 |